Location: Nitra
(0.0000°N, 18.0833°E)
Time: 23:33:59
(UTC+02:00)

ARIANE 5 DEB (SYLDA) - Pass Details

Date: 05 April 2023
Orbit: 830 x 35917 km, 2.4° (Epoch: 08 June)

Event Time Altitude Azimuth Distance (km) Brightness Sun altitude
Rises 00:21:00 0° 272° (W) 8,377 7.9 -80.6°
Reaches altitude 10° 00:24:34 10° 272° (W) 8,373 7.8 -81.2°
Enters shadow 00:53:10 59° 271° (W) 12,261 8.1 -84.1°
Exits shadow 02:06:30 80° 264° (W) 24,229 9.4 -70.2°
Maximum altitude 02:13:40 80° 264° (W) 25,141 9.5 -68.4°
Drops below altitude 10° 10:34:12 10° 90° (E) 4,295 7.1 55.5°
Sets 10:36:03 0° 89° (E) 4,797 7.1 55.9°
